This is the latest recevied weather packets stored in our database for station/object NC4M. If no packets are shown the sender has not sent any weather packets the latest 10 day(s).
| Time | Temp. | Humidity | Pressure | Rain* | Wind** | Luminosity | Snow |
|---|---|---|---|---|---|---|---|
| 1787506355 | 26.67° C | 51% | 1020.7 hPa | 0 mm | - | 545 W/m² | - |
| 1787506055 | 27.22° C | 47% | 1020.6 hPa | 0 mm | - | 791 W/m² | - |
| 1787505750 | 26.67° C | 51% | 1020.6 hPa | 0 mm | - | 760 W/m² | - |
| 1787505445 | 26.67° C | 46% | 1021 hPa | 0 mm | - | 892 W/m² | - |
| 1787505140 | 27.22° C | 46% | 1021 hPa | 0 mm | - | 845 W/m² | - |
| 1787504835 | 26.67° C | 50% | 1021.1 hPa | 0 mm | - | 719 W/m² | - |
| 1787504531 | 26.67° C | 54% | 1020.9 hPa | 0 mm | - | 638 W/m² | - |
| 1787504226 | 26.67° C | 49% | 1021 hPa | 0 mm | - | 747 W/m² | - |
| 1787503922 | 26.11° C | 53% | 1021 hPa | 0 mm | - | 824 W/m² | - |
| 1787503617 | 26.11° C | 48% | 1021.1 hPa | 0 mm | - | 643 W/m² | - |
| 1787503314 | 26.11° C | 48% | 1021.1 hPa | 0 mm | - | 540 W/m² | - |
| 1787503014 | 26.67° C | 49% | 1021.1 hPa | 0 mm | - | 742 W/m² | - |
| 1787502710 | 26.11° C | 51% | 1021.1 hPa | 0 mm | - | 794 W/m² | - |
| 1787502410 | 26.11° C | 52% | 1021.1 hPa | 0 mm | - | 671 W/m² | - |
| 1787502109 | 26.11° C | 53% | 1021.1 hPa | 0 mm | - | 665 W/m² | - |
| 1787501806 | 26.11° C | 53% | 1021 hPa | 0 mm | - | 584 W/m² | - |
| 1787501502 | 26.11° C | 53% | 1021 hPa | 0 mm | - | 738 W/m² | - |
| 1787501197 | 26.11° C | 50% | 1021.2 hPa | 0 mm | - | 671 W/m² | - |
| 1787500894 | 25.56° C | 51% | 1021.2 hPa | 0 mm | - | 753 W/m² | - |
| 1787500589 | 25.56° C | 52% | 1021.1 hPa | 0 mm | - | 741 W/m² | - |
| 1787500284 | 25° C | 54% | 1021.2 hPa | 0 mm | - | 677 W/m² | - |
| 1787499983 | 25° C | 53% | 1021.2 hPa | 0 mm | - | 217 W/m² | - |
| 1787499679 | 25° C | 55% | 1020.9 hPa | 0 mm | - | 55 W/m² | - |
| 1787499373 | 24.44° C | 56% | 1020.9 hPa | 0 mm | - | 53 W/m² | - |
| 1787499069 | 24.44° C | 55% | 1020.7 hPa | 0 mm | - | 72 W/m² | - |
* Rain latest hour (hover to see other rain measurements)
** Current wind speed in m/s (hover to see current wind gust speed)